Location: Les Chemineaux
(47.3024°N, 1.5104°E)
Time: 20:14:23
(UTC+00:00)

Ariane Rocket - Pass Details

Date: 19 May 2025
Orbit: 755 x 764 km, 98.5° (Epoch: 21 June)

Event Time Altitude Azimuth Distance (km) Brightness Sun altitude
Exits shadow 21:17:05 21° 161° (SSE) 1,682 4.2 -14.4°
Maximum altitude 21:20:35 84° 74° (ENE) 774 3.0 -14.8°
Drops below altitude 10° 21:25:41 10° 347° (NNW) 2,310 6.6 -15.3°
Sets 21:28:00 0° 347° (NNW) 3,242 7.6 -15.5°
